Location: Amon Carter Post Office
(32.8281°N, 97.0484°W)
Time: 10:22:01
(UTC+00:00)

Meteor 2-15 Rocket - Pass Details

Date: 05 July 2022
Orbit: 939 x 956 km, 82.5° (Epoch: 13 August)

Event Time Altitude Azimuth Distance (km) Brightness Sun altitude
Rises 10:04:56 0° 7° (N) 3,637 8.3 -14.8°
Reaches altitude 10° 10:07:53 10° 20° (NNE) 2,686 7.8 -14.4°
Maximum altitude 10:12:56 26° 76° (ENE) 1,770 6.7 -13.6°
Drops below altitude 10° 10:17:57 10° 131° (SE) 2,666 6.9 -12.7°
Sets 10:20:51 0° 144° (SE) 3,604 7.5 -12.3°
